Regional Weather Roundup
Issued by NWS

Home | Current Version | Previous Version | Text Only | Print | Product List | Glossary On
Versions: 1 2 3 4 5 6 7 8 9 10 11 12 13 14 15 16 17 18 19 20 21 22 23 24 25 26 27 28
000
ASUS45 KBOI 062310
RWRID

IDAHO REGIONAL WEATHER ROUNDUP
NATIONAL WEATHER SERVICE BOISE ID
400 PM MST TUE DEC 06 2016

NOTE: "FAIR" INDICATES FEW OR NO CLOUDS BELOW 12000 FEET
WITH NO SIGNIFICANT WEATHER AND/OR OBSTRUCTIONS TO VISIBILITY

IDZ012-014-070000-
SOUTHWEST IDAHO


CITY           SKY/WX    TMP DP  RH WIND       PRES   REMARKS
BOISE          CLOUDY    26  20  77 W5        29.97R WCI  20
CALDWELL       PTCLDY    25  20  81 W6        30.01R WCI  18
$$

IDZ016-017-070000-
SOUTHCENTRAL IDAHO


CITY           SKY/WX    TMP DP  RH WIND       PRES   REMARKS
BURLEY         CLOUDY    22  18  85 W5        29.85R WCI  16
JEROME         MOCLDY    20  17  88 W6        29.88R WCI  12
TWIN FALLS     PTCLDY    22  17  81 W9        29.87R WCI  12
$$

IDZ019>023-070000-
SOUTHEAST IDAHO


CITY           SKY/WX    TMP DP  RH WIND       PRES   REMARKS
IDAHO FALLS    CLOUDY    20  10  65 N6        29.82R WCI  12
POCATELLO      SNOW      20  16  84 NE6       29.83R VSB 1/2 WCI  12
REXBURG        CLOUDY    16  12  84 NE3       29.81S
$$

IDZ006-010-011-018-031-032-070000-
CENTRAL IDAHO MOUNTAINS


CITY           SKY/WX    TMP DP  RH WIND       PRES   REMARKS
MCCALL         CLOUDY    20  13  74 NW5       29.82R WCI  13
HAILEY         MOCLDY    18  12  79 SE9       29.80R WCI   6
STANLEY          N/A      9   5  84 CALM      29.76R
SALMON         CLOUDY    14   9  79 CALM      29.91R
CHALLIS        CLOUDY    15  11  83 CALM      29.82R
$$

IDZ002-004-006-007-026-070000-
NORTHERN IDAHO


CITY           SKY/WX    TMP DP  RH WIND       PRES   REMARKS
LEWISTON       CLOUDY    30  26  85 W7        30.06R WCI  23
LOWELL         NOT AVBL
COEUR D`ALENE  CLEAR     28  15  58 N13       30.04R WCI  17
MULLAN PASS    FLURRIES   9   5  84 CALM      29.80R
$$




USA.gov is the U.S. government's official web portal to all federal, state and local government web resources and services.